Temp
-3 -2 -2 -1 -0 1 1 1 2 2 2 3 2 2 2 2 1 1 0 0 1 1 2 2 2 2 2 1 0 0 -1 -2 -1 -2 -3 -3 -3 -3 -2 -2 -2 -3 -2
-3 -3 -2 -2 -1 -0 1 1 2 2 2 2 2 2 1 1 1 0 0 0 1 1 1 2 2 2 2 1 -0 -1 -2 -3 -2 -2 -2 -3 -2 -2 -2 -3 -4 -4 -4
-4 -3 -2 -2 -1 -1 -0 0 1 2 2 2 1 1 1 1 1 0 0 1 1 1 1 1 1 1 1 0 -0 -1 -2 -3 -2 -3 -2 -3 -4 -4 -4 -3 -3 -3 -3
-5 -4 -3 -2 -2 -2 -1 0 1 2 2 1 1 1 1 1 0 -0 0 1 1 1 1 0 1 1 0 -0 -0 -2 -2 -3 -3 -3 -3 -3 -3 -3 -3 -3 -3 -3 -3
-5 -5 -4 -3 -4 -2 -1 -0 1 1 1 1 0 1 1 0 -0 0 0 0 1 1 0 0 0 1 0 -0 -2 -3 -2 -1 -2 -2 -2 -2 -2 -2 -2 -3 -3 -4 -4
-5 -5 -4 -3 -3 -2 -1 -0 1 1 1 0 0 0 -0 0 -0 0 0 1 0 0 1 1 1 0 -0 -1 -1 -1 -0 -1 -1 -1 -1 -1 -2 -2 -2 -3 -4 -4 -5
-5 -4 -4 -3 -3 -2 -1 -1 0 -0 0 0 -0 -0 0 -0 -1 -0 0 0 0 -0 -0 0 0 -0 -1 -2 -1 -0 -1 -1 -1 -1 -1 -1 -2 -3 -3 -3 -4 -5 -6
-5 -5 -4 -3 -2 -2 -1 -1 0 -0 -0 -0 -0 -0 -0 -0 -0 -0 -1 -0 -1 -2 -2 -1 -1 -1 0 -1 -1 -0 -1 -1 -1 -1 -2 -2 -2 -3 -4 -5 -6 -7 -8
-5 -5 -4 -2 -2 -2 -1 -1 -0 0 -0 0 0 -0 0 -1 -0 -1 -0 -1 -1 -2 -1 -1 -0 0 0 -1 -1 -1 -1 -1 -1 -2 -2 -2 -3 -4 -5 -6 -7 -8 -9
-5 -5 -4 -3 -2 -2 -2 -0 -1 -0 0 -0 -0 -0 -1 -1 -0 -1 -0 -1 -1 -0 -1 0 0 -0 -1 -1 -1 -1 -1 -1 -2 -2 -2 -3 -4 -5 -6 -7 -8 -9 -9
-4 -5 -4 -3 -3 -2 -2 -1 -1 -0 0 -1 -0 -1 -1 -1 -2 -2 -2 -2 -2 -1 -0 0 0 -1 -1 -1 -1 -1 -2 -2 -2 -2 -3 -4 -4 -5 -7 -8 -8 -9 -9
-4 -4 -4 -3 -3 -2 -2 -1 -1 -1 -1 -1 -1 -2 -2 -2 -2 -2 -2 -2 -2 -0 0 0 -0 -1 -2 -1 -1 -1 -2 -2 -2 -3 -3 -4 -5 -6 -7 -8 -8 -9 -9
-4 -4 -4 -3 -3 -2 -2 -1 -1 -2 -1 -1 -1 -2 -2 -2 -2 -2 -2 -3 -1 -0 -0 -0 -1 -1 -1 -1 -1 -2 -2 -2 -3 -3 -4 -5 -5 -6 -7 -8 -8 -9 -10
-5 -4 -4 -3 -2 -2 -2 -1 -1 -1 -1 -1 -1 -1 -1 -2 -2 -2 -2 -1 -0 0 -0 -0 -1 -1 -1 -1 -2 -2 -2 -2 -3 -4 -4 -5 -5 -6 -7 -8 -8 -9 -10
-4 -3 -3 -2 -2 -3 -2 -2 -1 -2 -1 -1 -1 -1 -0 -1 -2 -2 -1 -1 -0 -0 -1 -1 -1 -1 -1 -2 -2 -2 -2 -3 -3 -4 -4 -5 -6 -6 -7 -8 -8 -9 -10
-3 -3 -2 -2 -2 -2 -2 -2 -2 -2 -2 -2 -2 -2 -2 -2 -2 -1 -1 -1 -0 -1 -1 -1 -1 -1 -2 -2 -2 -2 -2 -3 -3 -4 -4 -5 -6 -6 -7 -7 -8 -9 -10
-3 -3 -3 -2 -2 -2 -2 -2 -2 -2 -2 -2 -2 -2 -2 -1 -1 -1 -1 -0 -1 -1 -1 -1 -1 -1 -2 -2 -2 -2 -3 -3 -3 -4 -4 -5 -6 -6 -7 -7 -8 -9 -10
-3 -3 -3 -2 -2 -2 -2 -2 -2 -1 -2 -2 -2 -2 -2 -1 -1 -1 -0 -0 -0 -1 -2 -1 -1 -1 -2 -2 -2 -2 -3 -3 -3 -4 -4 -5 -6 -6 -7 -7 -8 -9 -9
-2 -2 -2 -2 -2 -2 -2 -2 -2 -2 -2 -2 -2 -2 -2 -1 -1 -0 -1 -1 -1 -1 -1 -1 -1 -2 -2 -2 -2 -2 -3 -3 -3 -4 -4 -5 -6 -6 -7 -7 -8 -8 -9
-2 -3 -2 -2 -2 -2 -2 -2 -2 -2 -2 -2 -2 -2 -1 -1 -0 -0 -1 -1 -1 -1 -1 -1 -1 -2 -2 -2 -2 -2 -3 -3 -3 -4 -4 -5 -6 -6 -7 -7 -8 -8 -9
-3 -3 -3 -2 -2 -2 -2 -2 -2 -2 -2 -2 -2 -2 -1 -1 -0 -1 -1 -1 -1 -1 -1 -1 -1 -2 -2 -2 -2 -2 -3 -3 -3 -4 -4 -5 -5 -6 -6 -7 -8 -8 -9
-3 -3 -2 -2 -2 -2 -2 -2 -2 -2 -2 -2 -2 -1 -1 -1 -1 -1 -1 -1 -1 -1 -1 -1 -1 -1 -2 -2 -2 -3 -3 -3 -3 -4 -4 -5 -5 -6 -6 -7 -7 -8 -8
-3 -3 -2 -2 -3 -2 -2 -2 -2 -2 -2 -2 -1 -1 -0 -1 -1 -1 -0 -1 -1 -1 -1 -1 -2 -2 -2 -2 -2 -2 -3 -3 -4 -4 -4 -5 -5 -5 -6 -6 -7 -7 -8
-3 -3 -2 -2 -2 -2 -2 -2 -2 -2 -2 -2 -1 -1 -0 -0 -1 -1 -1 -1 -1 -1 -1 -1 -1 -2 -2 -2 -2 -2 -3 -3 -3 -4 -4 -4 -5 -5 -5 -6 -6 -7 -7
-2 -3 -3 -3 -2 -2 -2 -2 -2 -2 -2 -2 -1 -1 -0 -0 -1 -1 -1 -1 -1 -1 -1 -1 -1 -2 -2 -2 -2 -2 -3 -3 -3 -4 -4 -4 -5 -5 -5 -5 -6 -6 -6
-3 -3 -3 -2 -3 -3 -3 -2 -3 -2 -2 -1 -1 -1 -1 -0 -1 -1 -1 -1 -1 -1 -1 -1 -1 -2 -2 -2 -2 -2 -3 -3 -3 -4 -4 -4 -4 -5 -5 -5 -5 -6 -6
Height
2997 2997 2997 2995 2995 2996 2997 2997 2999 3001 3001 3004 3005 3010 3012 3014 3014 3015 3017 3026 3035 3044 3048 3051 3055 3057 3060 3063 3066 3068 3071 3072 3072 3073 3071 3071 3071 3072 3072 3070 3069 3067 3066
2993 2992 2990 2989 2990 2991 2992 2992 2996 2998 3000 3002 3002 3003 3006 3008 3009 3010 3017 3026 3035 3042 3046 3049 3052 3056 3059 3062 3065 3068 3069 3070 3071 3070 3070 3069 3069 3069 3068 3067 3065 3064 3063
2988 2985 2984 2984 2986 2986 2988 2988 2992 2995 2996 2997 2998 2999 2999 3002 3006 3011 3018 3027 3035 3040 3044 3048 3051 3055 3059 3062 3065 3066 3068 3067 3069 3067 3067 3067 3066 3067 3065 3063 3061 3060 3058
2984 2981 2979 2980 2981 2983 2984 2984 2986 2989 2991 2991 2994 2994 2995 2997 3002 3010 3019 3027 3034 3038 3043 3048 3051 3056 3059 3061 3064 3065 3066 3067 3067 3065 3064 3064 3064 3064 3063 3061 3059 3056 3053
2981 2978 2976 2977 2976 2978 2980 2979 2981 2984 2986 2989 2992 2992 2993 2995 3002 3012 3020 3027 3033 3038 3043 3048 3052 3056 3058 3059 3062 3064 3065 3065 3065 3064 3064 3064 3063 3062 3060 3058 3055 3052 3048
2978 2975 2971 2971 2971 2974 2974 2974 2976 2979 2983 2987 2989 2989 2991 2997 3007 3015 3022 3027 3033 3039 3043 3048 3053 3055 3057 3058 3061 3062 3064 3066 3065 3064 3064 3063 3061 3059 3057 3054 3051 3046 3042
2973 2969 2967 2967 2968 2969 2971 2970 2972 2975 2980 2983 2986 2988 2995 3001 3010 3018 3024 3029 3036 3040 3046 3049 3052 3054 3056 3059 3060 3063 3064 3065 3064 3064 3063 3062 3060 3056 3053 3050 3047 3043 3038
2968 2965 2964 2963 2964 2966 2966 2966 2969 2971 2976 2978 2982 2989 2996 3004 3013 3019 3025 3031 3037 3041 3046 3048 3051 3054 3056 3059 3063 3063 3065 3065 3064 3064 3062 3060 3057 3055 3051 3047 3043 3039 3034
2965 2962 2960 2960 2961 2961 2961 2962 2962 2964 2974 2979 2984 2990 2998 3006 3015 3021 3026 3032 3038 3042 3045 3049 3052 3056 3057 3061 3064 3065 3066 3065 3065 3064 3061 3058 3056 3053 3049 3045 3040 3035 3029
2960 2959 2957 2958 2960 2958 2956 2958 2956 2961 2974 2979 2986 2993 3000 3008 3017 3022 3029 3035 3039 3042 3046 3049 3053 3056 3060 3063 3064 3063 3067 3067 3066 3063 3060 3057 3055 3051 3047 3042 3038 3032 3025
2955 2955 2954 2955 2957 2958 2957 2957 2961 2968 2974 2975 2986 2994 3003 3011 3018 3025 3031 3038 3042 3045 3048 3052 3055 3058 3061 3064 3063 3066 3067 3068 3066 3062 3060 3057 3053 3049 3045 3041 3036 3030 3023
2950 2951 2951 2952 2951 2957 2958 2963 2967 2969 2972 2980 2989 2997 3006 3015 3021 3027 3033 3039 3042 3047 3050 3055 3057 3060 3064 3064 3066 3067 3068 3068 3065 3062 3060 3057 3054 3050 3046 3041 3036 3030 3023
2945 2948 2949 2951 2955 2957 2959 2966 2968 2972 2977 2985 2993 3000 3007 3015 3022 3029 3034 3039 3043 3048 3052 3056 3060 3062 3064 3067 3068 3068 3068 3066 3065 3063 3061 3058 3055 3051 3046 3042 3036 3030 3023
2939 2946 2949 2953 2957 2960 2960 2964 2969 2974 2982 2990 2997 3004 3010 3017 3023 3029 3035 3040 3045 3050 3055 3058 3062 3063 3067 3069 3069 3069 3068 3068 3067 3065 3063 3060 3057 3053 3048 3043 3038 3032 3026
2935 2942 2947 2953 2958 2963 2965 2968 2973 2982 2990 2996 3003 3011 3016 3019 3027 3035 3040 3044 3048 3054 3058 3061 3065 3067 3069 3070 3071 3071 3071 3070 3069 3067 3065 3063 3059 3055 3051 3046 3041 3036 3030
2933 2939 2946 2953 2959 2963 2968 2973 2980 2987 2993 3001 3010 3016 3018 3027 3031 3037 3041 3046 3052 3057 3060 3065 3067 3069 3071 3072 3073 3073 3073 3072 3071 3070 3067 3065 3062 3059 3055 3050 3046 3041 3035
2933 2940 2949 2956 2961 2966 2972 2978 2982 2989 3000 3007 3013 3019 3026 3030 3035 3041 3045 3050 3054 3060 3063 3067 3070 3071 3073 3074 3075 3076 3076 3075 3074 3072 3071 3068 3065 3062 3059 3054 3051 3046 3040
2936 2944 2952 2958 2964 2970 2977 2983 2988 2994 3000 3006 3015 3022 3028 3034 3040 3045 3050 3056 3058 3060 3065 3070 3071 3074 3076 3077 3078 3078 3079 3078 3077 3076 3074 3072 3069 3066 3063 3060 3056 3052 3047
2941 2949 2956 2962 2968 2974 2979 2986 2992 2999 3004 3010 3016 3024 3031 3036 3043 3049 3054 3057 3063 3064 3068 3071 3074 3077 3079 3080 3081 3081 3082 3081 3080 3079 3078 3076 3074 3070 3067 3065 3061 3057 3053
2950 2956 2961 2967 2972 2977 2983 2990 2995 3002 3008 3014 3020 3026 3031 3040 3046 3052 3056 3059 3064 3068 3071 3074 3078 3080 3081 3083 3084 3084 3085 3085 3084 3083 3081 3080 3077 3075 3073 3070 3066 3063 3060
2956 2961 2966 2971 2976 2982 2988 2995 3000 3006 3013 3020 3027 3033 3038 3045 3050 3055 3058 3062 3067 3071 3074 3077 3080 3082 3084 3086 3087 3088 3088 3088 3087 3086 3085 3084 3082 3080 3078 3075 3072 3069 3066
2962 2966 2970 2976 2981 2986 2992 2998 3006 3012 3019 3025 3029 3035 3041 3047 3052 3057 3062 3065 3069 3073 3077 3080 3082 3085 3087 3089 3090 3091 3091 3091 3090 3090 3089 3088 3086 3084 3082 3080 3077 3074 3071
2966 2970 2974 2979 2986 2990 2995 3003 3010 3016 3022 3027 3034 3039 3044 3049 3055 3061 3065 3069 3073 3077 3080 3082 3085 3088 3090 3092 3093 3094 3094 3094 3094 3094 3093 3092 3090 3089 3087 3084 3082 3079 3077
2969 2975 2978 2984 2989 2994 3001 3007 3013 3020 3025 3031 3037 3043 3048 3053 3058 3064 3068 3072 3076 3079 3082 3085 3088 3091 3093 3095 3096 3097 3097 3097 3097 3097 3097 3096 3094 3093 3091 3089 3087 3085 3082
2973 2978 2984 2988 2992 2997 3002 3010 3016 3022 3029 3035 3041 3047 3052 3056 3061 3066 3071 3075 3079 3082 3085 3088 3091 3093 3096 3098 3099 3100 3101 3101 3101 3101 3101 3100 3098 3097 3096 3094 3092 3090 3088
2976 2981 2986 2991 2995 3001 3007 3013 3019 3026 3032 3038 3045 3050 3056 3060 3065 3069 3074 3079 3082 3085 3088 3091 3094 3096 3099 3101 3102 3103 3104 3104 3105 3105 3105 3104 3103 3101 3101 3099 3098 3096 3094
Wind_Speed
25 22 21 21 21 23 20 12 10 11 10 11 13 13 15 19 17 15 33 34 28 25 21 18 16 14 14 14 13 13 11 11 9 10 11 9 8 5 7 10 11 15 16
23 23 19 20 21 18 16 15 12 13 12 12 15 16 18 16 15 17 37 29 23 21 19 17 16 14 14 14 12 10 9 9 11 12 10 11 5 8 13 15 20 11 19
23 22 19 19 16 12 13 16 15 16 17 17 15 11 14 20 21 28 33 26 22 21 19 18 16 15 14 11 11 11 13 10 10 8 7 5 8 10 15 19 16 18 21
21 21 17 16 12 12 14 15 16 20 21 19 14 11 13 21 31 36 29 24 24 23 21 20 16 14 12 10 11 8 6 6 9 6 4 6 7 8 12 14 16 18 20
20 20 14 16 9 11 13 10 19 19 21 18 13 14 23 32 38 32 27 26 26 24 23 19 15 13 10 9 8 5 9 8 6 3 1 2 4 7 10 13 16 18 20
20 19 13 16 11 7 15 10 19 21 22 18 14 16 33 32 31 27 27 27 25 23 19 17 14 10 8 8 8 7 7 6 4 3 3 4 7 10 13 16 18 21 23
20 19 13 17 17 15 6 12 18 21 26 20 22 22 28 34 27 26 27 26 24 21 17 14 12 9 8 9 10 9 8 7 6 5 6 7 10 13 17 19 20 22 23
19 19 12 19 17 17 12 13 26 28 27 22 25 33 38 30 26 28 27 27 24 19 15 12 10 9 13 14 10 10 8 8 8 6 7 11 12 14 16 18 19 19 21
19 19 12 21 20 12 11 14 24 34 31 28 30 30 38 35 28 31 28 26 26 20 14 12 11 16 16 14 12 11 10 9 7 7 10 11 13 15 17 17 18 21 25
19 18 13 21 18 4 5 16 23 28 28 20 32 42 36 35 32 28 27 25 22 16 13 16 20 18 16 15 15 14 10 7 8 9 11 13 15 16 18 19 21 25 25
22 17 12 20 19 7 8 6 18 24 26 26 46 36 37 33 29 28 23 20 14 13 15 19 20 20 17 15 17 12 10 7 9 11 13 15 18 21 22 22 23 26 24
24 13 13 21 8 10 10 16 14 23 38 42 45 42 37 33 27 27 28 17 15 17 20 20 19 20 17 17 14 12 9 9 11 14 16 18 20 22 23 23 25 28 27
21 12 15 18 9 12 13 17 13 26 40 43 39 37 38 32 34 31 28 21 23 22 21 21 19 19 18 15 13 11 10 12 13 16 17 19 21 23 26 25 27 30 30
15 14 19 23 16 10 7 21 24 34 39 41 37 41 34 31 32 28 26 25 24 23 22 21 20 20 18 15 13 12 12 13 15 17 18 20 22 25 27 28 29 32 31
18 21 25 25 22 17 19 19 27 36 38 39 34 25 22 30 31 23 20 23 23 22 20 20 19 19 17 14 13 13 13 15 16 17 18 20 23 26 27 30 31 32 31
23 29 34 31 32 19 20 29 31 25 31 29 24 24 31 25 27 26 26 25 25 22 22 19 19 19 16 14 14 13 15 16 17 18 20 21 23 25 27 29 31 32 33
30 31 31 27 27 22 23 26 30 33 29 25 25 33 24 26 26 25 27 26 26 24 21 19 18 18 15 15 14 15 16 16 17 19 20 21 22 24 27 29 30 32 34
33 30 30 21 27 29 28 27 30 33 34 32 30 26 29 26 24 24 25 24 25 27 22 19 18 17 15 14 14 16 16 17 18 19 19 21 22 24 26 27 29 30 32
32 31 27 23 34 24 29 29 33 34 34 36 36 34 29 28 26 27 27 24 22 23 22 21 19 16 15 15 15 16 16 17 18 19 19 21 22 23 25 26 27 29 31
31 26 23 30 31 28 30 29 33 34 41 41 37 33 34 28 27 27 26 27 23 22 21 20 18 17 16 15 15 16 16 17 17 18 19 20 21 23 24 24 25 27 28
27 23 27 31 27 28 28 33 31 35 36 38 33 30 29 28 27 26 27 27 24 22 21 20 18 17 16 15 16 16 16 16 17 18 18 19 20 22 23 24 24 25 26
24 26 31 27 32 29 30 30 35 32 33 33 33 34 32 31 28 26 28 27 25 23 22 20 18 17 16 16 16 16 16 16 16 17 18 19 20 21 22 23 24 24 25
25 28 29 25 25 27 35 33 35 31 28 33 33 33 33 31 28 27 27 26 24 23 22 22 19 17 17 17 16 16 16 16 16 16 17 18 19 20 21 22 22 24 24
24 29 25 29 24 28 30 31 35 31 32 32 32 32 31 30 28 27 27 25 24 23 23 22 21 19 18 18 16 16 16 16 16 16 16 17 18 19 20 21 22 23 23
25 25 22 24 22 29 35 37 34 32 34 31 32 31 30 29 28 28 27 25 23 22 22 22 21 20 19 18 17 16 16 16 16 16 16 17 18 19 20 21 21 22 23
27 32 28 24 32 30 36 37 37 37 33 33 32 31 28 28 28 28 27 25 24 23 23 22 21 21 19 18 17 16 16 16 16 17 17 17 18 19 20 20 21 22 23
Wind_Direction
295 295 286 281 271 259 260 251 246 240 210 192 203 220 240 252 256 290 178 172 180 204 214 204 205 202 197 189 199 209 219 223 224 253 280 300 291 289 277 272 279 295 277
299 293 287 282 273 261 251 232 223 218 204 227 228 243 250 239 242 226 171 170 188 204 196 191 186 182 190 186 192 220 252 252 249 247 248 278 286 237 271 283 273 290 287
306 297 287 278 261 239 241 233 223 232 218 225 232 252 238 224 205 173 167 175 186 186 179 179 175 179 186 190 213 225 231 238 249 245 220 221 247 251 270 294 297 293 294
304 298 284 266 243 216 233 236 231 229 228 220 235 244 212 195 190 173 169 172 181 175 174 173 174 186 193 207 226 219 231 220 227 191 202 208 255 276 289 302 304 304 302
300 301 277 236 217 233 215 225 218 221 209 209 219 207 192 187 169 169 166 174 178 172 172 171 177 192 194 201 194 206 199 179 184 149 123 312 321 321 317 316 314 313 309
301 300 278 226 203 234 229 239 220 210 199 207 211 199 159 150 158 161 169 170 170 170 167 176 183 182 187 184 190 160 153 151 121 95 60 16 357 341 333 328 323 321 320
310 296 287 216 206 235 206 243 224 199 193 200 196 176 164 156 156 165 164 163 163 161 170 174 181 188 179 175 147 153 136 119 99 69 38 13 356 349 341 330 325 322 322
311 297 287 215 220 231 246 257 208 198 195 196 177 173 157 147 164 165 161 161 159 161 178 172 178 179 166 150 146 130 124 103 80 57 27 11 -0 349 340 335 334 335 333
310 299 281 216 217 227 238 244 208 202 185 177 175 172 157 158 168 165 169 162 160 173 168 169 161 148 142 136 132 122 105 89 70 48 27 14 4 357 353 351 350 350 343
310 297 270 224 222 235 243 248 184 157 165 175 171 162 159 149 146 157 161 172 168 172 169 155 149 141 139 137 127 111 92 81 64 44 31 23 15 11 8 8 4 358 351
313 295 266 226 216 117 209 175 162 169 169 151 158 153 142 151 152 155 156 154 164 163 157 151 146 140 136 137 116 107 100 78 58 50 38 31 26 21 19 16 11 6 4
306 281 250 226 194 190 198 161 166 144 156 153 149 145 139 143 142 136 138 143 153 154 149 149 143 139 139 122 116 108 100 75 59 49 43 37 33 28 26 22 17 14 15
290 249 228 217 153 149 148 191 187 175 156 150 147 148 146 146 139 145 147 158 146 146 148 145 142 137 127 124 117 106 88 70 58 51 46 41 37 34 31 27 24 19 20
241 203 200 187 165 119 134 173 149 152 156 148 151 148 149 148 148 148 154 149 147 146 147 143 145 132 132 123 112 98 79 69 61 54 49 45 41 38 36 32 29 25 22
198 185 182 172 169 151 133 170 154 149 154 147 146 157 163 151 148 146 143 142 140 143 141 141 137 133 125 116 105 91 79 70 64 57 52 47 45 42 40 36 34 30 28
177 178 179 179 172 160 160 149 148 155 135 133 148 142 141 142 146 150 147 143 144 141 141 141 138 131 123 116 101 86 78 71 65 58 53 49 47 45 43 40 38 35 34
174 176 180 172 168 150 153 154 160 140 140 153 152 146 148 145 148 150 144 146 145 144 139 139 135 125 121 110 99 87 77 71 66 59 54 51 49 48 46 43 41 41 39
168 171 177 155 156 146 147 149 147 151 156 153 150 146 145 146 149 145 145 152 148 141 138 137 131 126 118 107 98 87 79 72 67 62 57 55 51 50 49 46 44 45 45
159 165 161 158 155 151 154 155 156 157 160 156 151 150 147 146 148 150 151 145 146 138 136 132 130 125 115 108 98 88 81 74 69 65 61 58 55 54 52 49 48 48 48
155 159 164 165 161 150 153 154 152 162 159 163 160 154 149 152 151 152 148 141 143 140 133 131 131 123 116 106 98 90 83 77 72 67 64 61 59 58 55 52 51 51 51
151 156 158 158 156 154 154 159 159 158 158 155 155 153 148 150 151 151 145 141 142 138 131 131 127 120 115 109 100 93 86 80 74 71 67 64 62 60 57 55 55 54 54
150 161 168 161 153 156 162 160 156 151 159 161 159 155 152 150 151 150 149 145 143 138 134 131 126 122 117 109 103 97 91 84 78 75 70 66 64 62 60 58 57 57 56
153 157 161 146 150 155 160 153 160 155 158 160 158 157 153 149 151 153 150 144 141 137 134 128 124 121 115 107 102 99 95 88 82 77 74 70 66 64 62 61 59 59 57
161 159 150 156 168 158 160 153 156 160 158 159 159 156 153 150 150 152 149 146 142 140 136 131 130 125 117 110 105 100 97 93 87 82 78 75 71 66 63 61 59 59 58
169 177 170 167 161 160 162 166 161 165 161 158 158 156 155 150 152 152 149 147 143 140 136 133 130 125 120 115 110 105 100 95 90 85 79 76 73 68 65 62 60 59 59
173 171 163 173 162 156 163 167 162 157 160 159 159 156 155 153 154 152 150 149 145 142 139 135 131 127 121 117 113 108 104 99 93 88 82 77 75 72 68 67 64 62 61